Temp_Advection
nan nan nan nan nan nan nan nan nan nan nan nan nan nan nan nan nan nan nan nan nan nan nan nan nan nan nan nan nan nan nan nan nan nan nan nan nan nan nan nan nan nan nan nan nan
nan -0 -0 -0 -0 0 -0 -0 -0 -0 -0 0 0 0 0 0 -0 -0 0 0 0 0 0 0 0 0 -0 -0 0 -0 -1 -1 -1 -0 -1 -1 -0 -0 -0 -1 -1 -1 -0 -0 nan
nan 0 -0 -0 0 0 -0 -0 -0 -0 -0 0 0 0 0 0 -0 -0 0 0 0 0 -0 0 0 0 -0 -0 -1 -1 -0 -1 -1 -0 -0 -0 -0 0 0 -1 -1 -0 -0 -0 nan
nan 0 -0 -0 0 0 -0 -0 -0 -0 0 0 0 -0 0 0 -0 -0 0 0 0 -0 0 0 0 -0 -0 -1 -0 0 -0 -1 -0 0 -0 -1 -0 -1 -1 -0 -0 -0 -0 -0 nan
nan 0 -0 -0 -0 -0 -0 -0 -0 -0 0 0 0 0 0 -0 -0 0 0 0 -0 0 0 0 0 -0 -1 -1 -1 -1 -1 -1 -0 -0 -0 -0 -0 -1 -0 -0 -0 -0 -0 -0 nan
nan 0 -0 -0 -0 -0 -0 -0 -0 0 0 0 0 0 -0 -1 -0 0 0 0 0 0 0 0 0 -1 -1 -0 -1 -1 -1 -0 -0 -0 -0 -0 -0 -0 -0 -0 -0 -0 -0 -0 nan
nan 0 0 0 -0 -0 -0 0 0 0 0 0 0 -0 -1 -0 0 0 0 0 -0 -0 -0 0 0 0 -1 -1 -0 -1 -1 -1 -0 -0 -0 -0 -1 -0 -0 0 -0 -0 -0 -0 nan
nan 0 0 0 0 -0 0 0 0 0 0 0 0 -0 -0 -0 0 0 0 0 0 -0 -0 -0 0 0 -0 -2 -1 -0 -1 -1 -0 -0 -0 0 -1 -0 0 0 -0 -0 -0 -0 nan
nan 0 0 0 0 -0 -0 0 0 0 0 0 0 -0 -0 -0 0 0 -0 -0 0 0 0 0 0 -1 -0 -1 -1 -0 0 -0 -1 -0 -0 0 -1 -0 0 0 -0 -0 -0 -0 nan
nan 0 0 0 0 -0 0 0 0 0 0 -0 0 -0 -0 -0 0 -0 0 0 0 0 0 0 -0 -0 -0 0 -0 -0 0 0 0 -1 0 0 -1 -0 0 0 0 -0 -0 -0 nan
nan 0 0 0 0 0 0 0 0 -0 -1 0 -0 -0 -0 0 0 -0 0 0 0 0 -0 0 -0 -1 -0 -0 -0 -0 -0 0 -1 -0 -0 0 -0 -0 -0 0 0 -0 -0 -0 nan
nan 0 0 0 0 0 0 -0 -0 -0 -0 -0 -0 -0 -0 0 -0 -0 0 0 0 0 0 -0 -1 -0 -0 -0 -0 -0 -0 -0 -0 -0 0 0 -0 -0 -0 0 0 -0 -0 0 nan
nan 0 0 0 0 -0 -0 0 0 0 -0 -0 0 -0 0 -0 -0 -1 -0 -0 0 -0 -0 -1 -0 0 -0 -0 -0 0 -0 -0 1 -0 -0 -0 0 -0 -0 0 0 0 0 0 nan
nan 0 0 -0 0 0 0 0 0 -0 -0 -0 0 -0 0 0 -0 0 -0 0 0 -0 -0 -0 -0 0 -0 -0 -0 0 -0 -0 0 -0 0 -0 0 -0 -0 0 -0 0 0 0 nan
nan 0 0 0 0 0 0 0 -0 -0 0 -0 -0 -0 0 -0 -0 0 0 0 -0 -0 0 -0 -0 -0 -0 -0 -0 -0 0 -0 -0 -0 0 -0 0 -0 -0 -0 -0 0 0 0 nan
nan -0 0 0 -0 0 -0 -0 0 -0 -0 -0 -0 0 -0 -0 0 0 0 -0 0 0 -0 -0 -0 -0 -0 0 0 -0 -0 -0 -0 -0 0 -0 0 -0 0 0 -0 -0 -0 -0 nan
nan -0 -0 0 -0 0 0 0 -1 -0 0 0 -0 0 -0 -0 -0 0 0 0 0 -0 -0 -0 -0 -0 -0 -0 0 -0 -0 0 0 -0 0 -0 0 -1 -1 -0 -0 -0 -0 -0 nan
nan 0 0 -0 -0 0 -0 -0 0 -0 -0 -0 0 0 -0 0 0 0 0 -0 -1 -1 -0 0 -0 -0 -0 -0 -0 -0 -0 -0 -0 -0 0 -0 0 -1 -1 -0 -0 0 0 -0 nan
nan 0 0 -0 0 0 -0 -0 -0 -0 -0 -0 -0 -0 -0 -0 0 -0 -0 -0 -0 -1 -1 -0 -0 -0 -0 -0 -0 -0 -0 -0 -0 -0 -0 -0 -1 -0 -0 -0 0 0 0 -0 nan
nan 0 0 0 0 0 0 -0 -0 -0 -0 -0 -0 -0 -0 -0 -0 0 -0 -0 -0 -0 -0 0 0 -0 -0 -0 0 -0 -0 -0 0 -0 -0 -1 1 -1 0 0 -0 -0 -0 -0 nan
nan -0 0 0 0 0 -0 -0 -0 -0 -0 -0 -0 0 -0 -0 -0 -0 -0 -0 -0 -0 0 -0 -0 -0 -0 0 -0 0 0 0 0 -0 -0 -1 -1 -1 -0 -0 -0 -0 -0 -0 nan
nan 0 -0 1 -0 -0 -0 -0 -0 -0 0 0 0 -0 -0 -0 -0 -0 -0 -0 -0 -0 -0 -0 -0 -0 -0 -0 -0 -0 -0 -0 -0 -0 0 0 0 -0 -0 0 0 0 -0 0 nan
nan -0 0 0 0 -1 -0 -0 0 0 0 0 -0 -0 -0 0 0 -0 -0 -0 -0 -0 -0 -0 -0 0 -0 -0 -0 -0 0 0 -0 -0 -0 -0 0 -1 0 0 0 -0 0 -0 nan
nan -0 -0 -0 0 0 -1 -0 -0 -0 0 0 0 0 -0 -0 -0 -0 -0 -0 -0 -0 -0 -0 -0 -0 -0 1 0 0 0 0 0 -0 -0 0 0 -0 0 -0 0 0 0 -0 nan
nan 0 0 0 0 0 0 -0 -0 -0 -0 -0 0 -0 0 -0 -0 -0 -0 -0 -0 0 -0 -0 -0 -0 -0 0 0 0 -0 0 0 -0 -0 -0 0 0 -1 -0 0 0 -0 -0 nan
nan -0 -0 0 0 -0 0 0 -0 -0 0 0 0 -0 0 0 -0 -0 0 0 0 -0 -0 -0 -0 -0 0 -0 0 -0 -0 0 -0 0 0 0 0 -1 -0 -0 -0 -0 -0 -0 nan
nan nan nan nan nan nan nan nan nan nan nan nan nan nan nan nan nan nan nan nan nan nan nan nan nan nan nan nan nan nan nan nan nan nan nan nan nan nan nan nan nan nan nan nan nan
Wind_Speed
7 8 8 8 9 10 11 14 15 17 16 16 16 17 19 18 16 12 13 10 11 9 11 10 5 5 9 10 9 2 7 9 8 5 9 4 13 20 20 25 26 17 17 12 11
6 8 9 9 11 11 13 16 18 18 21 21 19 19 21 19 14 15 12 10 10 9 9 7 7 6 9 11 9 11 10 8 9 16 15 16 14 12 12 17 19 17 14 13 13
6 7 9 10 11 13 17 19 19 19 17 13 11 10 11 11 9 11 9 10 9 9 8 5 7 12 16 12 10 6 7 18 17 20 20 21 16 2 6 12 13 13 12 13 14
7 8 9 12 13 16 19 18 16 12 6 4 5 3 4 4 4 6 7 9 9 10 7 3 4 9 9 9 11 14 12 12 17 14 13 12 12 18 18 12 10 11 12 14 16
7 8 12 14 15 18 18 17 13 10 9 9 11 14 11 13 9 6 8 9 10 8 7 7 9 9 10 17 29 21 18 17 17 18 17 16 14 15 15 11 10 10 13 15 16
8 11 16 16 17 19 17 15 14 14 14 11 11 10 6 18 7 8 10 8 9 10 11 9 14 19 15 7 9 20 28 24 17 15 11 15 10 4 8 8 8 9 11 12 15
11 15 18 18 19 19 17 15 13 17 12 11 17 18 19 11 9 8 10 11 11 9 9 8 4 3 9 19 27 30 17 16 11 6 15 11 10 9 7 6 6 7 8 10 13
15 18 20 20 20 18 15 18 16 12 10 11 14 10 10 10 8 5 8 9 8 10 10 12 11 14 8 26 17 7 15 8 4 11 7 5 6 7 4 4 4 5 7 9 13
19 19 20 21 19 17 22 16 10 9 10 7 7 7 7 7 6 7 6 6 7 10 12 10 16 17 22 12 7 9 8 2 5 3 5 7 7 8 5 4 3 3 6 9 12
19 21 23 20 23 20 17 11 10 7 6 8 6 9 6 6 8 8 4 3 2 2 2 2 4 6 4 5 5 6 4 1 3 6 3 2 7 8 7 4 1 3 6 9 13
21 24 23 22 18 16 16 10 6 7 21 14 10 13 7 5 13 9 4 4 2 4 5 4 5 7 7 6 7 6 5 4 4 2 2 3 9 9 7 5 1 2 7 11 14
23 23 21 18 19 14 5 1 6 11 13 13 12 11 9 8 3 15 11 2 3 4 3 8 9 5 5 3 3 2 4 3 3 3 6 6 9 9 8 4 1 5 8 12 15
21 20 19 19 12 4 4 13 15 9 5 7 9 9 6 10 8 14 11 5 9 12 10 11 5 3 5 5 4 1 7 6 10 3 6 5 11 11 9 5 3 3 6 11 14
19 18 18 14 2 8 14 9 3 3 4 6 6 7 8 2 5 12 9 4 3 4 6 7 4 3 2 6 8 5 6 9 9 4 4 7 4 12 11 9 7 4 8 13 16
17 16 14 11 5 6 8 3 2 2 3 4 4 4 9 5 2 11 11 10 8 4 4 4 4 8 6 4 7 5 7 7 6 8 8 9 5 7 9 8 7 4 10 14 16
16 15 12 5 6 10 5 3 4 5 3 3 2 3 2 11 5 4 5 6 2 5 12 5 2 4 5 6 4 7 8 5 5 6 6 9 3 7 5 4 2 5 11 16 17
15 15 12 5 5 10 4 6 5 3 1 3 3 3 4 6 5 6 7 10 4 3 1 4 4 2 7 7 5 10 12 2 3 4 5 3 5 6 8 5 4 8 14 16 18
14 13 12 8 5 9 3 5 2 2 3 2 2 4 2 5 4 3 1 5 10 6 3 4 4 6 9 5 4 7 6 5 6 9 12 4 4 5 8 5 2 8 12 16 19
11 10 9 8 8 8 3 3 5 3 2 5 3 2 3 2 3 0 5 3 6 9 5 5 3 3 5 5 5 5 4 3 6 8 5 1 6 6 6 3 4 12 15 18 20
10 6 6 8 9 8 4 4 2 3 1 1 2 3 1 3 1 1 1 3 2 5 5 4 3 2 2 2 3 3 3 2 2 6 8 13 8 6 7 2 8 14 16 18 20
11 3 5 10 9 1 2 4 4 3 2 3 2 2 4 2 4 2 4 3 2 3 5 4 2 4 3 2 4 2 1 0 3 3 5 9 6 5 6 5 9 13 15 19 17
3 3 9 12 4 2 3 4 3 3 1 1 2 4 4 2 2 1 2 4 2 4 3 4 4 5 4 4 2 2 3 3 3 1 6 6 3 7 5 4 9 14 15 17 15
3 4 7 5 2 4 4 4 3 3 1 1 2 4 2 2 1 1 2 2 2 3 5 5 2 5 5 3 3 4 3 2 3 2 9 7 6 7 3 7 12 15 17 17 17
3 3 2 0 2 7 7 5 4 2 2 3 4 2 3 2 2 2 3 2 0 1 2 2 3 6 7 7 3 5 5 6 6 4 9 11 11 4 8 10 14 15 17 15 17
3 2 3 4 3 8 4 6 6 4 2 2 2 1 1 2 2 2 2 3 2 1 2 2 4 3 11 11 7 11 11 9 13 14 8 14 15 16 7 9 13 16 15 15 17
3 3 4 3 8 11 3 6 7 4 1 3 2 4 1 1 2 2 3 3 1 4 2 1 2 3 5 0 5 10 12 11 13 15 17 16 14 6 6 10 14 15 11 15 16
5 4 3 3 7 5 3 7 6 11 2 3 4 4 4 3 3 5 4 4 3 1 3 2 4 3 5 1 11 11 8 11 6 7 7 8 5 5 7 11 12 10 9 13 14
Wind_Direction
108 108 112 118 125 125 127 129 127 121 116 113 109 103 94 85 70 68 62 59 58 62 62 43 42 66 70 66 47 16 104 90 48 84 121 147 89 72 76 75 68 74 72 57 38
126 123 122 132 126 120 125 126 124 120 115 108 102 102 102 96 84 63 58 62 63 61 45 61 61 86 78 62 41 60 75 50 46 99 104 93 97 93 85 72 69 68 61 53 41
134 131 133 134 123 122 124 125 125 123 116 107 109 119 103 111 81 33 51 64 66 72 74 52 73 83 84 62 40 34 106 101 84 99 102 95 92 88 147 65 61 63 52 45 38
137 143 144 138 129 126 126 128 128 121 116 119 111 129 113 41 71 5 53 61 56 65 36 74 127 80 73 79 106 108 99 100 120 113 115 99 105 79 80 91 78 66 56 43 35
145 154 150 143 134 133 130 125 120 114 111 104 99 99 90 92 61 61 60 55 43 44 62 79 98 106 97 105 88 92 96 93 107 109 105 108 89 92 81 83 75 62 53 41 33
139 149 148 143 139 139 132 122 120 111 105 96 95 75 101 78 54 68 63 47 63 57 66 87 88 104 78 65 39 126 115 117 118 120 116 106 98 65 81 85 76 60 50 41 33
138 145 143 145 143 142 134 125 125 119 103 81 98 91 80 64 59 68 67 67 71 66 76 86 75 267 102 97 120 123 117 129 146 159 137 124 77 91 103 92 71 57 47 39 29
132 139 142 143 143 141 133 127 118 110 96 87 90 82 76 55 60 73 61 56 47 55 97 91 89 80 104 125 146 140 161 183 117 161 178 250 100 110 126 101 73 50 37 28 22
130 136 139 142 141 136 131 121 109 97 91 82 59 106 74 32 43 67 69 84 57 60 73 82 79 102 130 149 173 191 294 70 127 233 260 234 104 137 163 149 103 43 28 19 12
133 136 138 141 134 130 128 109 93 68 77 50 53 113 52 18 28 37 78 82 22 3 104 99 122 141 183 253 341 348 273 315 324 53 204 237 111 152 181 179 148 17 13 9 7
136 135 135 136 140 134 124 115 110 71 63 68 54 84 74 30 40 19 42 41 337 35 92 18 96 39 357 331 321 320 314 343 95 113 262 261 171 181 181 193 214 341 358 358 2
140 139 139 140 137 139 144 274 100 129 81 58 63 63 59 42 39 26 46 18 2 88 128 116 67 19 340 349 280 274 309 53 118 163 257 193 208 178 192 188 301 345 346 349 349
148 148 145 145 144 161 162 134 130 132 110 56 50 39 26 43 43 6 24 27 43 73 62 58 47 6 358 38 326 266 338 343 308 178 248 226 241 190 196 199 235 307 326 339 345
155 155 153 156 114 140 140 136 159 228 191 36 24 19 352 41 61 21 29 20 46 60 50 65 56 28 36 56 345 302 4 307 288 232 318 199 318 190 183 212 225 284 333 341 345
163 161 158 160 145 143 157 128 345 247 205 28 39 24 31 64 358 13 30 61 48 38 260 86 34 17 34 8 339 13 334 313 282 236 292 194 252 107 166 211 226 336 342 341 344
172 167 162 172 183 181 168 341 332 230 87 103 40 5 135 46 41 19 39 58 71 58 65 89 80 34 351 312 276 295 264 241 249 254 253 114 280 148 180 239 83 344 341 346 344
176 176 180 171 203 190 204 329 243 341 183 102 49 38 80 31 58 32 53 52 35 295 76 153 61 81 357 298 199 339 332 305 265 234 15 118 269 55 118 99 35 349 347 344 343
183 187 197 209 199 182 231 265 318 38 46 101 93 80 63 347 68 45 168 80 45 349 314 329 176 8 3 31 326 354 351 10 316 330 318 156 254 106 123 111 29 341 342 343 342
171 180 198 201 182 168 237 269 31 62 82 156 169 232 116 93 338 160 50 48 27 8 354 339 117 114 45 20 328 13 18 348 280 273 260 58 117 145 145 164 324 344 347 346 342
150 149 176 168 155 144 257 69 78 52 30 296 316 325 37 53 255 311 19 45 30 11 336 47 270 121 94 253 63 357 354 256 250 311 320 321 325 55 185 280 346 350 352 343 343
140 150 169 149 133 174 336 68 110 81 26 338 56 104 55 45 19 46 49 104 34 355 334 331 256 121 205 199 351 205 210 276 281 263 302 309 357 48 90 14 355 344 350 346 347
124 177 161 145 159 39 93 79 112 117 54 81 68 50 42 54 60 71 47 38 25 345 350 26 315 286 42 103 326 294 318 290 290 360 273 275 288 127 96 11 352 346 349 348 347
115 90 161 156 174 110 119 99 79 144 80 100 97 31 52 91 235 41 90 87 27 1 4 15 188 289 175 167 179 241 169 277 296 282 258 280 323 161 257 355 352 352 347 347 347
141 134 121 259 110 140 143 137 121 67 92 76 111 119 153 128 44 150 146 162 41 8 23 315 282 274 301 320 325 262 217 225 241 263 302 278 323 193 340 357 347 344 344 346 345
176 135 157 166 167 143 128 146 147 146 103 175 121 266 176 136 161 162 140 163 188 192 273 287 280 302 282 286 275 269 270 241 231 249 267 296 313 321 17 346 339 340 345 345 342
160 150 108 79 138 145 170 166 162 131 177 166 218 135 126 104 17 9 187 222 354 175 249 205 286 308 283 107 256 270 263 252 252 258 264 280 299 51 360 334 337 342 347 343 335
207 185 126 149 164 199 127 148 161 136 77 55 135 137 136 84 82 85 81 82 96 266 212 266 295 310 277 255 299 275 249 210 223 233 263 285 7 348 337 338 337 339 346 338 331
Height
1530 1531 1532 1533 1533 1533 1534 1535 1536 1537 1538 1538 1539 1539 1540 1541 1541 1543 1542 1543 1541 1540 1539 1540 1540 1539 1540 1540 1540 1538 1540 1553 1556 1557 1578 1582 1586 1589 1592 1592 1593 1594 1599 1601 1599
1532 1533 1533 1535 1535 1535 1536 1537 1538 1540 1540 1541 1541 1542 1543 1542 1547 1545 1546 1544 1543 1542 1543 1544 1543 1542 1543 1544 1545 1541 1552 1569 1569 1571 1577 1584 1587 1592 1594 1595 1597 1599 1601 1601 1599
1533 1533 1535 1536 1536 1537 1538 1539 1541 1543 1543 1543 1544 1545 1545 1545 1548 1550 1548 1546 1545 1544 1544 1545 1546 1546 1546 1549 1553 1555 1566 1575 1579 1580 1584 1588 1591 1592 1591 1597 1602 1602 1603 1602 1600
1533 1534 1536 1537 1538 1539 1541 1543 1544 1545 1545 1545 1545 1546 1547 1547 1551 1553 1550 1548 1547 1546 1548 1548 1548 1547 1549 1552 1558 1564 1573 1577 1584 1585 1586 1588 1592 1596 1596 1603 1604 1604 1605 1604 1603
1533 1535 1536 1538 1540 1542 1544 1545 1547 1547 1547 1547 1548 1548 1548 1551 1555 1553 1552 1550 1549 1549 1550 1550 1549 1548 1553 1562 1564 1572 1580 1585 1588 1589 1590 1592 1596 1598 1604 1606 1606 1607 1606 1605 1604
1534 1535 1537 1540 1542 1545 1547 1548 1549 1549 1550 1550 1551 1551 1552 1552 1555 1555 1553 1553 1552 1553 1552 1552 1552 1553 1560 1563 1563 1576 1582 1587 1590 1591 1594 1594 1599 1599 1608 1608 1608 1607 1606 1606 1605
1534 1536 1539 1543 1545 1547 1549 1550 1551 1552 1553 1553 1553 1553 1553 1558 1557 1557 1556 1555 1554 1554 1554 1554 1555 1556 1561 1570 1575 1577 1582 1587 1589 1591 1595 1594 1599 1606 1608 1608 1608 1608 1608 1607 1605
1536 1539 1542 1545 1548 1550 1551 1553 1554 1555 1555 1555 1555 1556 1558 1560 1560 1559 1559 1558 1557 1557 1556 1556 1558 1560 1562 1571 1576 1573 1575 1573 1587 1592 1592 1594 1594 1607 1609 1608 1609 1608 1608 1607 1606
1539 1542 1545 1548 1550 1552 1554 1556 1557 1557 1557 1556 1558 1558 1562 1563 1562 1560 1560 1561 1561 1560 1560 1560 1562 1565 1569 1566 1567 1567 1559 1562 1586 1590 1589 1590 1597 1607 1608 1607 1606 1607 1607 1607 1606
1542 1544 1548 1551 1553 1555 1556 1558 1559 1559 1559 1559 1560 1561 1566 1567 1564 1562 1562 1562 1563 1563 1564 1563 1563 1563 1562 1560 1561 1559 1559 1567 1568 1590 1586 1586 1598 1605 1605 1606 1607 1608 1608 1607 1606
1546 1548 1551 1554 1556 1558 1559 1560 1564 1564 1562 1566 1567 1564 1567 1568 1568 1565 1564 1564 1565 1563 1561 1564 1560 1570 1573 1573 1570 1566 1564 1566 1583 1593 1589 1589 1596 1601 1606 1607 1607 1607 1609 1609 1607
1549 1551 1554 1557 1559 1560 1561 1561 1560 1566 1569 1570 1569 1569 1568 1569 1568 1567 1567 1567 1564 1563 1564 1565 1577 1579 1576 1575 1572 1568 1568 1571 1587 1591 1589 1590 1591 1599 1605 1606 1609 1610 1609 1608 1606
1552 1554 1557 1559 1560 1561 1562 1562 1563 1563 1564 1572 1571 1571 1571 1572 1573 1571 1570 1570 1567 1565 1566 1566 1582 1580 1576 1575 1573 1570 1574 1575 1578 1587 1589 1588 1584 1596 1602 1607 1610 1609 1607 1605 1603
1555 1557 1559 1561 1564 1562 1563 1564 1564 1564 1557 1575 1575 1576 1576 1573 1576 1574 1572 1575 1572 1572 1573 1579 1582 1580 1577 1580 1581 1572 1582 1581 1579 1586 1569 1586 1567 1587 1596 1602 1604 1604 1604 1604 1604
1557 1559 1560 1563 1563 1565 1566 1565 1565 1565 1562 1578 1577 1577 1577 1576 1580 1577 1576 1576 1576 1577 1577 1586 1583 1581 1579 1584 1583 1579 1583 1581 1578 1578 1571 1580 1583 1585 1590 1595 1597 1602 1605 1603 1601
1558 1560 1561 1563 1564 1565 1565 1565 1565 1564 1580 1577 1579 1578 1576 1579 1580 1580 1579 1578 1580 1577 1578 1584 1587 1586 1587 1585 1585 1583 1578 1573 1576 1570 1569 1569 1572 1581 1586 1591 1598 1601 1601 1602 1601
1559 1560 1562 1563 1565 1564 1566 1566 1562 1562 1579 1580 1579 1578 1578 1582 1581 1583 1583 1583 1581 1578 1574 1582 1586 1588 1589 1580 1581 1575 1566 1558 1565 1561 1559 1569 1571 1576 1592 1597 1601 1604 1603 1601 1600
1560 1561 1562 1563 1564 1565 1567 1566 1564 1575 1575 1581 1581 1580 1580 1584 1585 1584 1580 1581 1588 1587 1577 1578 1578 1589 1591 1592 1591 1584 1582 1580 1587 1566 1562 1568 1568 1581 1594 1600 1602 1602 1600 1600 1599
1561 1562 1563 1564 1565 1566 1570 1561 1570 1571 1577 1578 1581 1577 1581 1584 1584 1582 1587 1589 1596 1595 1588 1583 1582 1594 1596 1596 1595 1584 1583 1591 1588 1565 1574 1549 1576 1588 1596 1598 1599 1600 1601 1600 1598
1562 1564 1564 1565 1566 1567 1567 1577 1577 1583 1583 1582 1577 1581 1578 1583 1582 1581 1586 1599 1598 1601 1600 1593 1586 1592 1595 1597 1596 1592 1594 1587 1582 1580 1575 1549 1544 1568 1592 1593 1597 1599 1600 1599 1596
1563 1566 1566 1566 1568 1569 1565 1578 1582 1586 1586 1583 1581 1582 1584 1585 1586 1587 1592 1602 1602 1601 1601 1597 1593 1591 1593 1590 1590 1590 1585 1590 1593 1588 1583 1570 1559 1585 1592 1598 1601 1600 1598 1598 1596
1564 1565 1566 1568 1570 1571 1571 1579 1585 1587 1587 1587 1586 1586 1586 1590 1588 1590 1591 1599 1605 1605 1598 1602 1595 1583 1584 1596 1598 1596 1591 1592 1590 1583 1583 1587 1573 1591 1595 1597 1597 1597 1598 1596 1593
1566 1567 1568 1568 1566 1573 1583 1585 1587 1587 1589 1588 1589 1591 1592 1592 1593 1595 1598 1607 1606 1606 1603 1603 1590 1581 1586 1598 1598 1593 1593 1595 1595 1597 1589 1588 1565 1591 1594 1593 1595 1597 1596 1595 1594
1565 1567 1571 1570 1570 1570 1577 1582 1587 1589 1590 1591 1592 1592 1592 1593 1595 1596 1599 1607 1607 1607 1607 1607 1596 1590 1582 1583 1593 1588 1592 1596 1595 1594 1576 1572 1573 1583 1584 1592 1594 1594 1594 1594 1593
1564 1566 1567 1569 1572 1572 1575 1580 1584 1587 1591 1591 1592 1591 1590 1591 1594 1594 1599 1605 1608 1608 1607 1606 1596 1595 1587 1586 1591 1592 1591 1589 1595 1587 1587 1569 1578 1580 1587 1592 1594 1593 1593 1593 1591
1564 1566 1568 1570 1571 1573 1577 1579 1580 1588 1589 1589 1589 1592 1593 1591 1594 1592 1597 1600 1599 1607 1606 1607 1595 1597 1585 1591 1594 1592 1588 1587 1587 1585 1584 1582 1582 1586 1590 1591 1592 1593 1594 1592 1590
1563 1564 1566 1572 1573 1571 1574 1578 1581 1585 1593 1593 1592 1593 1594 1599 1600 1600 1601 1602 1602 1602 1603 1604 1599 1593 1582 1587 1583 1573 1570 1578 1579 1580 1581 1581 1582 1587 1588 1590 1591 1591 1592 1591 1589